This is the latest recevied weather packets stored in our database for station/object KJ5EHN. If no packets are shown the sender has not sent any weather packets the latest 10 day(s).
| Time | Temp. | Humidity | Pressure | Rain* | Wind** | Luminosity | Snow |
|---|---|---|---|---|---|---|---|
| 1777738675 | 22.22° C | 38% | 1022.1 hPa | 0 mm | - | - | - |
| 1777738371 | 23.33° C | 36% | 1022.3 hPa | 0 mm | - | - | - |
| 1777738070 | 22.78° C | 36% | 1022.3 hPa | 0 mm | - | - | - |
| 1777737769 | 22.78° C | 36% | 1022.2 hPa | 0 mm | - | - | - |
| 1777737467 | 22.22° C | 35% | 1022 hPa | 0 mm | - | - | - |
| 1777737164 | 22.78° C | 38% | 1021.7 hPa | 0 mm | - | - | - |
| 1777736860 | 21.67° C | 40% | 1022.1 hPa | 0 mm | - | - | - |
| 1777736246 | 21.67° C | 39% | 1021.8 hPa | 0 mm | - | - | - |
| 1777735943 | 21.11° C | 41% | 1021.9 hPa | 0 mm | - | - | - |
| 1777735640 | 20.56° C | 42% | 1021.9 hPa | 0 mm | - | - | - |
| 1777735338 | 20° C | 44% | 1022.1 hPa | 0 mm | - | - | - |
| 1777735035 | 20.56° C | 44% | 1022.1 hPa | 0 mm | - | - | - |
| 1777734732 | 20.56° C | 47% | 1021.8 hPa | 0 mm | - | - | - |
| 1777734430 | 21.11° C | 46% | 1022 hPa | 0 mm | - | - | - |
| 1777734126 | 20.56° C | 49% | 1022 hPa | 0 mm | - | - | - |
| 1777733823 | 20.56° C | 46% | 1021.9 hPa | 0 mm | - | - | - |
| 1777733519 | 20.56° C | 45% | 1022 hPa | 0 mm | - | - | - |
| 1777733216 | 20° C | 48% | 1021.8 hPa | 0 mm | - | - | - |
| 1777732913 | 20° C | 48% | 1022 hPa | 0 mm | - | - | - |
| 1777732609 | 19.44° C | 46% | 1022 hPa | 0 mm | - | - | - |
| 1777732306 | 19.44° C | 47% | 1021.8 hPa | 0 mm | - | - | - |
| 1777732003 | 18.89° C | 49% | 1021.7 hPa | 0 mm | - | - | - |
| 1777731700 | 18.89° C | 54% | 1021.7 hPa | 0 mm | - | - | - |
| 1777731397 | 18.33° C | 55% | 1021.9 hPa | 0 mm | - | - | - |
| 1777731095 | 18.33° C | 55% | 1021.7 hPa | 0 mm | - | - | - |
* Rain latest hour (hover to see other rain measurements)
** Current wind speed in m/s (hover to see current wind gust speed)